Location: Zagreb
(45.8000°N, 16.0000°E)
Time: 14:18:12
(UTC+02:00)

Vanguard 1 - Pass Details

Date: 15 August 2022
Orbit: 649 x 3832 km, 34.2° (Epoch: 25 September)

Event Time Altitude Azimuth Distance (km) Brightness Sun altitude
Rises 12:12:05 0° 280° (W) 7,858 14.5 56.6°
Reaches altitude 10° 12:21:01 10° 262° (W) 6,940 14.4 57.1°
Maximum altitude 12:31:51 16° 234° (SW) 6,238 14.5 57.6°
Drops below altitude 10° 12:41:47 10° 205° (SSW) 6,219 14.7 57.9°
Sets 12:49:07 0° 185° (S) 6,664 14.8 58.1°
